This is the latest recevied weather packets stored in our database for station/object K1ABC. If no packets are shown the sender has not sent any weather packets the latest 10 day(s).
| Time | Temp. | Humidity | Pressure | Rain* | Wind** | Luminosity | Snow |
|---|---|---|---|---|---|---|---|
| 1778016746 | 27.22° C | 38% | 1004 hPa | 0 mm | - | - | - |
| 1778016376 | 27.78° C | 37% | 1003.8 hPa | 0 mm | - | - | - |
| 1778015749 | 27.78° C | 37% | 1003.7 hPa | 0 mm | - | - | - |
| 1778015622 | 27.78° C | 37% | 1003.8 hPa | 0 mm | - | - | - |
| 1778015014 | 27.78° C | 36% | 1003.8 hPa | 0 mm | - | - | - |
| 1778012963 | 28.33° C | 35% | 1003.7 hPa | 0 mm | - | - | - |
| 1778012260 | 27.78° C | 37% | 1003.8 hPa | 0 mm | - | - | - |
| 1778012014 | 27.78° C | 36% | 1003.8 hPa | 0 mm | - | - | - |
| 1778011327 | 28.89° C | 36% | 1003.9 hPa | 0 mm | - | - | - |
| 1778011198 | 28.33° C | 37% | 1003.8 hPa | 0 mm | - | - | - |
| 1778010627 | 28.33° C | 36% | 1003.8 hPa | 0 mm | - | - | - |
| 1778010122 | 28.89° C | 35% | 1003.9 hPa | 0 mm | - | - | - |
| 1778009794 | 28.33° C | 35% | 1004.1 hPa | 0 mm | - | - | - |
| 1778009548 | 28.33° C | 35% | 1004.1 hPa | 0 mm | - | - | - |
| 1778007796 | 28.33° C | 34% | 1004.6 hPa | 0 mm | - | - | - |
| 1778007674 | 28.89° C | 35% | 1004.7 hPa | 0 mm | - | - | - |
| 1778006904 | 28.89° C | 35% | 1005.1 hPa | 0 mm | - | - | - |
| 1778006402 | 28.33° C | 35% | 1005.1 hPa | 0 mm | - | - | - |
| 1778006277 | 27.78° C | 36% | 1005.1 hPa | 0 mm | - | - | - |
| 1778005786 | 28.33° C | 36% | 1005.3 hPa | 0 mm | - | - | - |
| 1778005657 | 28.33° C | 35% | 1005.4 hPa | 0 mm | - | - | - |
| 1778005285 | 28.89° C | 34% | 1005.3 hPa | 0 mm | - | - | - |
| 1778004721 | 28.89° C | 34% | 1005.6 hPa | 0 mm | - | - | - |
| 1778004214 | 28.89° C | 37% | 1005.5 hPa | 0 mm | - | - | - |
| 1778004092 | 28.89° C | 35% | 1005.5 hPa | 0 mm | - | - | - |
* Rain latest hour (hover to see other rain measurements)
** Current wind speed in m/s (hover to see current wind gust speed)